Flag for Germany Weather past 2 weeks in Homburg (Saar), Saarland, Germany

Now
54 °F

Light fog.


Feels Like: 54 °F
Forecast: 51 / 68 °F
Wind: 2 mph from North

Location: Zweibrucken - Rheinland-Pfalz

Current Time: Oct 2, 2014 at 4:27:04 AM

Latest Report: Oct 2, 2014 at 3:50 AM


Visibility: 3 mi

Pressure: 30.36 "Hg

Humidity: 100%

Dew point: 54 °F

Location of Homburg (Saar)Location

Historic Weather in Homburg (Saar) — Graph

°F

Homburg (Saar) temperature yesterday

Maximum temperature yesterday: 70 °F (at 2:50 PM)
Minimum temperature yesterday: 54 °F (at 3:50 AM)
Average temperature yesterday: 62 °F

Past Weeks' High & Low Weather Summary

 TemperatureHumidityPressure
High79 °F (Sep 17, 3:20 PM)100% (Sep 17, 4:50 AM)30.36 "Hg (Sep 17, 4:50 AM)
Low37 °F (Sep 23, 5:50 AM)55% (Sep 22, 4:20 PM)29.86 "Hg (Sep 17, 4:20 PM)
Average60 °F82%30.13 "Hg
* Reported Sep 17 2:20 AM — Oct 2 2:50 AM, Homburg (Saar), Weather by CustomWeather, © 2014

Note: Actual official high and low records may vary slightly from our data, if they occured in-between our weather recording intervals... More about our weather records

Advertising

Homburg (Saar) weather history for previous 24 hours

 ConditionsComfort  
Time TempWeatherWind HumidityBarometerVisibility
2:50 AM
Oct 2
54 °FCool.2 mph100%30.36 "Hg2 mi
12:50 AM55 °FFog.No wind100%30.36 "Hg4 mi
12:20 AM55 °FClear.2 mph100%30.36 "Hg4 mi
11:50 PM
Oct 1
55 °FClear.2 mph100%30.36 "Hg6 mi
11:20 PM57 °FPassing clouds.2 mph94%30.36 "HgN/A
10:50 PM57 °FPassing clouds.3 mph94%30.36 "HgN/A
10:20 PM59 °FPassing clouds.6 mph88%30.36 "HgN/A
9:50 PM61 °FPassing clouds.No wind88%30.36 "HgN/A
9:20 PM63 °FPassing clouds.2 mph83%30.36 "HgN/A
8:50 PM63 °FPartly sunny.1 mph77%30.36 "HgN/A
8:20 PM64 °FSunny.2 mph78%30.33 "Hg10 mi
7:50 PM64 °FSunny.3 mph78%30.33 "Hg10 mi
7:20 PM64 °FSunny.2 mph78%30.33 "Hg10 mi
6:50 PM66 °FSunny.3 mph73%30.33 "Hg10 mi
6:20 PM66 °FSunny.5 mph73%30.33 "Hg10 mi
5:50 PM66 °FScattered clouds.6 mph73%30.33 "HgN/A
5:20 PM68 °FScattered clouds.7 mph69%30.33 "HgN/A
4:50 PM70 °FPassing clouds.7 mph60%30.30 "HgN/A
4:20 PM70 °FPassing clouds.5 mph64%30.30 "HgN/A
3:50 PM68 °FScattered clouds.6 mph69%30.33 "HgN/A
3:20 PM70 °FScattered clouds.7 mph64%30.33 "HgN/A
2:50 PM70 °FPassing clouds.3 mph60%30.33 "HgN/A
2:20 PM68 °FPassing clouds.5 mph64%30.33 "HgN/A
1:50 PM68 °FPassing clouds.6 mph69%30.33 "HgN/A
1:20 PM66 °FPassing clouds.2 mph73%30.33 "HgN/A
12:50 PM66 °FPassing clouds.5 mph78%30.36 "HgN/A
12:20 PM64 °FPassing clouds.3 mph83%30.36 "HgN/A
11:50 AM64 °FSnow. Passing clouds.2 mph83%30.36 "Hg4 mi
11:20 AM61 °FSnow. Cloudy.2 mph94%30.36 "Hg1 mi
10:50 AM57 °FFog.2 mph100%30.36 "Hg0 mi
10:20 AM57 °FFog.2 mph100%30.33 "Hg0 mi
9:50 AM55 °FFog.1 mph100%30.33 "Hg0 mi
9:20 AM55 °FFog.2 mph100%30.33 "Hg0 mi
8:50 AM54 °FFog.No wind100%30.33 "Hg0 mi
8:20 AM54 °FCool.No wind100%30.33 "Hg0 mi
7:50 AM54 °FFog.No wind100%30.33 "Hg0 mi
Weather by CustomWeather, © 2014

See weather overviewHow to use our weather pages